RH
60 55 52 48 47 47 45 44 41 39 37 34 30 28 28 28 29 28 33 34 34 36
59 58 56 52 51 48 46 44 41 39 37 36 33 31 31 30 29 33 32 32 34 36
62 59 58 56 54 51 48 46 45 43 43 42 39 35 33 30 32 34 34 36 38 42
63 62 59 55 52 48 46 46 46 45 45 44 42 40 35 33 34 35 38 40 41 43
60 58 54 50 46 46 46 46 46 46 46 47 47 45 42 41 37 39 41 43 43 39
54 52 51 50 48 47 46 46 46 47 47 48 49 50 51 49 47 48 47 45 39 36
47 49 49 47 46 46 47 48 49 50 50 50 50 51 50 52 51 49 45 40 38 39
47 49 49 49 50 51 51 49 50 51 52 52 52 51 51 51 51 47 41 39 41 45
52 53 51 52 51 52 55 58 58 58 58 56 55 53 51 50 46 43 42 47 49 41
57 55 56 55 56 58 60 61 61 63 64 66 63 58 53 49 46 48 53 40 26 17
60 60 59 60 59 60 61 63 67 66 69 70 67 63 60 57 55 46 33 24 19 18
67 67 69 68 66 64 63 66 69 71 72 69 65 62 56 44 34 28 25 23 22 24
69 69 71 73 70 69 69 70 69 69 70 68 65 57 45 37 31 26 25 26 28 30
73 69 68 70 71 73 72 71 70 68 68 63 54 42 34 29 28 29 30 32 34 34